FW6228 Weather Reports


time (UTC)temp
C
wind
direction
speed
KPH
gust
KPH
rain 1hr
cm
rain 24hr
cm
rain mn
cm
humidity
%
barometer
mb
20260507015059 8 94 0.0 1.6 0.00 0.00 0.00 53 1015.1
20260507014059 8 94 0.0 1.6 0.00 0.00 0.00 51 1014.9
20260507013059 9 94 0.0 3.2 0.00 0.00 0.00 49 1015.0
20260507012058 10 94 0.0 4.8 0.00 0.00 0.00 48 1015.0
20260507011558 10 94 3.2 6.4 0.00 0.00 0.00 48 1015.0
20260507010558 10 94 4.8 6.4 0.00 0.00 0.00 47 1014.9
20260507005558 10 94 3.2 9.7 0.00 0.00 0.00 46 1014.8
20260507004558 11 94 4.8 8.0 0.00 0.00 0.00 45 1014.8
20260507004058 11 94 4.8 9.7 0.00 0.00 0.00 45 1014.8
20260507003558 11 94 1.6 17.7 0.00 0.00 0.00 43 1014.8
20260507003058 11 94 3.2 24.1 0.00 0.00 0.00 43 1014.7
20260507002558 11 94 3.2 24.1 0.00 0.00 0.00 43 1015.0
20260507002058 11 94 1.6 17.7 0.00 0.00 0.00 43 1014.8
20260507000558 12 94 0.0 22.5 0.00 0.00 0.00 41 1014.9
20260506235557 12 94 4.8 19.3 0.00 0.00 0.00 41 1014.8
20260506235057 12 94 8.0 19.3 0.00 0.00 0.00 40 1014.6
20260506234557 12 94 4.8 19.3 0.00 0.00 0.00 41 1014.8
20260506234057 11 94 6.4 22.5 0.00 0.00 0.00 41 1014.7
20260506233557 12 94 3.2 22.5 0.00 0.00 0.00 42 1014.8
20260506233057 12 94 9.7 20.9 0.00 0.00 0.00 41 1014.7
20260506232557 12 94 6.4 19.3 0.00 0.00 0.00 40 1014.8
20260506232057 12 94 11.3 17.7 0.00 0.00 0.00 40 1014.8
20260506231557 13 94 3.2 25.7 0.00 0.00 0.00 40 1014.8
20260506230557 12 94 17.7 17.7 0.00 0.00 0.00 42 1014.6
20260506225557 12 94 4.8 16.1 0.00 0.00 0.00 43 1014.6
20260506225056 12 94 1.6 25.7 0.00 0.00 0.00 42 1014.7
20260506224557 12 94 8.0 25.7 0.00 0.00 0.00 42 1014.6
20260506224057 12 94 8.0 17.7 0.00 0.00 0.00 43 1014.6
20260506223556 12 94 16.1 17.7 0.00 0.00 0.00 44 1014.6
20260506222556 12 94 4.8 20.9 0.00 0.00 0.00 43 1014.7
20260506221556 12 94 12.9 27.4 0.00 0.00 0.00 42 1014.7
20260506221056 12 94 8.0 25.7 0.00 0.00 0.00 40 1014.7
20260506220556 12 94 9.7 25.7 0.00 0.00 0.00 41 1014.7
20260506220056 12 94 9.7 24.1 0.00 0.00 0.00 42 1014.6
20260506215556 12 94 9.7 33.8 0.00 0.00 0.00 43 1014.6
20260506214556 12 94 11.3 24.1 0.00 0.00 0.00 43 1014.5
20260506214056 12 94 12.9 22.5 0.00 0.00 0.00 43 1014.6
20260506213056 12 94 1.6 20.9 0.00 0.00 0.00 42 1014.7
20260506212556 12 94 3.2 25.7 0.00 0.00 0.00 42 1014.6
20260506212056 12 94 6.4 25.7 0.00 0.00 0.00 43 1014.6
20260506211055 12 94 9.7 29.0 0.00 0.00 0.00 42 1014.7
20260506205555 13 94 4.8 20.9 0.00 0.00 0.00 42 1014.8
20260506205055 12 94 3.2 22.5 0.00 0.00 0.00 42 1014.8
20260506204555 12 94 4.8 29.0 0.00 0.00 0.00 42 1014.8
20260506203555 13 94 1.6 24.1 0.00 0.00 0.00 41 1015.0
20260506203055 13 94 4.8 22.5 0.00 0.00 0.00 43 1014.9
20260506202555 12 94 9.7 24.1 0.00 0.00 0.00 42 1014.9
20260506202055 13 94 6.4 24.1 0.00 0.00 0.00 42 1014.9
20260506201555 13 94 6.4 25.7 0.00 0.00 0.00 40 1014.9
20260506201054 13 94 9.7 25.7 0.00 0.00 0.00 41 1015.0
20260506200054 13 94 1.6 27.4 0.00 0.00 0.00 41 1014.9
20260506195554 13 94 1.6 35.4 0.00 0.00 0.00 41 1014.9
20260506195054 13 94 3.2 35.4 0.00 0.00 0.00 40 1014.9
20260506194554 13 94 3.2 27.4 0.00 0.00 0.00 39 1014.9
20260506194054 13 94 4.8 29.0 0.00 0.00 0.00 43 1015.0
20260506193554 13 94 9.7 29.0 0.00 0.00 0.00 41 1014.9
20260506193054 13 94 3.2 30.6 0.00 0.00 0.00 41 1014.9
20260506192554 13 94 3.2 30.6 0.00 0.00 0.00 42 1014.8
20260506192054 13 94 14.5 19.3 0.00 0.00 0.00 42 1014.9
20260506191554 13 94 1.6 19.3 0.00 0.00 0.00 42 1014.9
20260506191054 12 94 6.4 25.7 0.00 0.00 0.00 41 1014.9
20260506190554 12 94 9.7 27.4 0.00 0.00 0.00 40 1014.9
20260506190054 13 94 4.8 27.4 0.00 0.00 0.00 41 1015.1
20260506185554 13 94 6.4 27.4 0.00 0.00 0.00 42 1014.9
20260506185053 13 94 16.1 25.7 0.00 0.00 0.00 41 1015.1
20260506184553 13 94 9.7 24.1 0.00 0.00 0.00 41 1015.0
20260506184053 13 94 12.9 24.1 0.00 0.00 0.00 43 1015.2
20260506183053 13 94 12.9 29.0 0.00 0.00 0.00 41 1015.1
20260506182553 13 94 6.4 25.7 0.00 0.00 0.00 41 1015.2
20260506182053 13 94 20.9 25.7 0.00 0.00 0.00 41 1015.0
20260506181553 13 94 8.0 24.1 0.00 0.00 0.00 44 1015.2
20260506181053 12 94 8.0 24.1 0.00 0.00 0.00 42 1015.1
20260506180053 13 94 4.8 27.4 0.00 0.00 0.00 42 1015.0
20260506175053 12 94 11.3 29.0 0.00 0.00 0.00 41 1015.4
20260506174553 12 94 14.5 29.0 0.00 0.00 0.00 43 1015.2
20260506174053 12 94 8.0 27.4 0.00 0.00 0.00 45 1015.4
20260506173553 12 94 12.9 25.7 0.00 0.00 0.00 42 1015.3
20260506173053 12 94 14.5 27.4 0.00 0.00 0.00 42 1015.5
20260506172053 12 94 9.7 25.7 0.00 0.00 0.00 41 1015.2
20260506171552 12 94 17.7 24.1 0.00 0.00 0.00 41 1015.3
20260506171052 12 94 4.8 22.5 0.00 0.00 0.00 42 1015.2
20260506170553 12 94 8.0 25.7 0.00 0.00 0.00 41 1015.2
20260506170053 12 94 3.2 25.7 0.00 0.00 0.00 39 1015.2
20260506165553 12 94 8.0 25.7 0.00 0.00 0.00 42 1015.4
20260506165052 12 94 4.8 27.4 0.00 0.00 0.00 39 1015.4
20260506164052 12 94 6.4 20.9 0.00 0.00 0.00 43 1015.4
20260506163552 12 94 9.7 24.1 0.00 0.00 0.00 44 1015.4
20260506162552 11 94 4.8 25.7 0.00 0.00 0.00 42 1015.5
20260506162052 11 94 8.0 24.1 0.00 0.00 0.00 43 1015.5
20260506161052 12 94 4.8 20.9 0.00 0.00 0.00 41 1015.4
20260506160552 12 94 4.8 20.9 0.00 0.00 0.00 44 1015.5
20260506160051 12 94 11.3 20.9 0.00 0.00 0.00 42 1015.5
20260506155552 11 94 1.6 19.3 0.00 0.00 0.00 44 1015.5
20260506155052 11 94 1.6 19.3 0.00 0.00 0.00 43 1015.6
20260506154552 11 94 4.8 20.9 0.00 0.00 0.00 45 1015.6
20260506154052 11 94 4.8 24.1 0.00 0.00 0.00 46 1015.5
20260506153051 11 94 4.8 30.6 0.00 0.00 0.00 47 1015.4
20260506152551 11 94 19.3 22.5 0.00 0.00 0.00 46 1015.3
20260506152052 10 94 6.4 20.9 0.00 0.00 0.00 49 1015.3
20260506151551 10 94 9.7 20.9 0.00 0.00 0.00 49 1015.1
20260506150551 10 94 3.2 19.3 0.00 0.00 0.00 50 1015.2
20260506150051 10 94 6.4 22.5 0.00 0.00 0.00 52 1015.1
20260506145551 10 94 6.4 22.5 0.00 0.00 0.00 51 1015.1
20260506145051 10 94 9.7 19.3 0.00 0.00 0.00 53 1015.1
20260506144550 9 94 6.4 20.9 0.00 0.00 0.00 56 1015.1
20260506144051 9 94 12.9 20.9 0.00 0.00 0.00 55 1015.0
20260506143550 9 94 11.3 16.1 0.00 0.00 0.00 56 1014.9
20260506143051 8 94 11.3 16.1 0.00 0.00 0.00 55 1014.9
20260506142550 8 94 8.0 14.5 0.00 0.00 0.00 56 1014.9
20260506142051 8 94 4.8 14.5 0.00 0.00 0.00 55 1014.9
20260506141551 8 94 6.4 16.1 0.00 0.00 0.00 56 1014.9
20260506141050 8 94 4.8 16.1 0.00 0.00 0.00 57 1014.9
20260506140050 8 94 3.2 14.5 0.00 0.00 0.00 60 1015.0
20260506135550 8 94 3.2 20.9 0.00 0.00 0.00 60 1014.9
20260506135050 8 94 6.4 20.9 0.00 0.00 0.00 60 1015.0
20260506134550 8 94 0.0 17.7 0.00 0.00 0.00 60 1014.8
20260506133550 7 94 1.6 14.5 0.00 0.00 0.00 63 1014.9
20260506133050 7 94 3.2 12.9 0.00 0.00 0.00 63 1014.8
20260506132549 7 94 1.6 11.3 0.00 0.00 0.00 64 1014.7
20260506132050 7 94 1.6 14.5 0.00 0.00 0.00 64 1014.8
20260506131549 7 94 3.2 14.5 0.00 0.00 0.00 64 1014.8
20260506131049 7 94 6.4 12.9 0.00 0.00 0.00 65 1014.7
20260506130549 7 94 3.2 14.5 0.00 0.00 0.00 66 1014.6
20260506130049 7 94 9.7 14.5 0.00 0.00 0.00 66 1014.5
20260506125549 7 94 3.2 12.9 0.00 0.00 0.00 68 1014.5
20260506125049 6 94 3.2 12.9 0.00 0.00 0.00 69 1014.5
20260506124550 6 94 4.8 11.3 0.00 0.00 0.00 72 1014.3
20260506124049 6 94 4.8 9.7 0.00 0.00 0.00 72 1014.2
20260506123549 6 94 9.7 9.7 0.00 0.00 0.00 72 1014.1
20260506123049 6 94 0.0 8.0 0.00 0.00 0.00 74 1014.1
20260506122049 5 94 1.6 6.4 0.00 0.00 0.00 76 1013.7
20260506121549 5 94 0.0 6.4 0.00 0.00 0.00 75 1013.5
20260506121048 5 94 0.0 6.4 0.00 0.00 0.00 75 1013.6
20260506120548 5 94 0.0 6.4 0.00 0.00 0.00 75 1013.6
20260506120048 5 94 0.0 6.4 0.00 0.00 0.00 76 1013.6
20260506115548 5 94 3.2 6.4 0.00 0.00 0.00 76 1013.6
20260506114548 5 94 3.2 4.8 0.00 0.00 0.00 77 1013.3
20260506113548 4 94 0.0 4.8 0.00 0.08 0.00 78 1012.8
20260506113048 4 94 0.0 4.8 0.00 0.08 0.00 79 1012.7
20260506112548 4 94 0.0 3.2 0.00 0.08 0.00 79 1012.6
20260506112048 4 94 0.0 3.2 0.00 0.08 0.00 79 1012.5
20260506111548 4 94 0.0 4.8 0.00 0.08 0.00 79 1012.5
20260506111048 4 94 0.0 4.8 0.00 0.08 0.00 79 1012.4
20260506110548 4 94 1.6 3.2 0.00 0.08 0.00 79 1012.4
20260506110048 3 94 1.6 3.2 0.00 0.08 0.00 80 1012.3
20260506105548 3 94 1.6 1.6 0.00 0.08 0.00 80 1012.3
20260506105048 3 94 1.6 1.6 0.00 0.08 0.00 79 1012.3
20260506104547 3 94 0.0 1.6 0.00 0.08 0.00 79 1012.4
20260506104048 4 94 0.0 1.6 0.00 0.08 0.00 78 1012.3
20260506103547 4 94 0.0 1.6 0.00 0.08 0.00 78 1012.3
20260506103047 4 94 0.0 1.6 0.00 0.08 0.00 78 1012.3
20260506102547 4 94 0.0 1.6 0.00 0.08 0.00 78 1012.3
20260506102047 3 94 1.6 1.6 0.00 0.08 0.00 79 1012.4
20260506101047 3 94 0.0 1.6 0.00 0.08 0.00 80 1012.4
20260506100547 3 94 0.0 0.0 0.00 0.08 0.00 78 1012.4
20260506100117 4 94 0.0 0.0 0.00 0.08 0.00 78 1012.2
20260506095547 4 94 0.0 0.0 0.00 0.08 0.00 78 1012.3
20260506094547 5 94 0.0 1.6 0.00 0.08 0.00 76 1012.2
20260506094047 5 94 0.0 1.6 0.00 0.08 0.00 76 1012.2
20260506093547 5 94 0.0 1.6 0.00 0.08 0.00 75 1012.1
20260506093117 5 94 0.0 1.6 0.00 0.08 0.00 75 1012.1
20260506092617 5 94 0.0 1.6 0.00 0.08 0.00 74 1012.1
20260506091117 5 94 0.0 1.6 0.00 0.08 0.00 73 1011.7
20260506090616 5 94 1.6 1.6 0.00 0.08 0.00 73 1011.7
20260506085116 6 94 0.0 0.0 0.00 0.08 0.00 71 1011.7
20260506084616 6 94 0.0 0.0 0.00 0.08 0.00 70 1011.8
20260506084116 6 94 0.0 0.0 0.00 0.08 0.00 69 1011.7
20260506083616 6 94 0.0 0.0 0.00 0.08 0.00 69 1011.6
20260506083116 6 94 0.0 0.0 0.00 0.08 0.00 68 1011.7
20260506082616 6 94 0.0 1.6 0.00 0.08 0.00 66 1011.7
20260506082116 6 94 0.0 1.6 0.00 0.08 0.00 66 1011.8
20260506081616 6 94 0.0 1.6 0.00 0.08 0.00 66 1011.8
20260506081116 6 94 0.0 1.6 0.00 0.08 0.00 65 1011.8
20260506080616 6 94 0.0 1.6 0.00 0.08 0.00 65 1011.6
20260506073115 7 94 0.0 1.6 0.00 0.08 0.00 64 1011.7
20260506072615 7 94 0.0 1.6 0.00 0.08 0.00 64 1011.7
20260506071615 7 94 0.0 1.6 0.00 0.08 0.00 63 1011.7
20260506071115 7 94 0.0 3.2 0.00 0.08 0.00 63 1011.7
20260506070115 7 94 0.0 3.2 0.00 0.08 0.00 62 1011.6
20260506062114 8 94 1.6 4.8 0.00 0.08 0.00 61 1011.4
20260506061614 8 94 3.2 6.4 0.00 0.08 0.00 60 1011.2
20260506060614 8 94 0.0 4.8 0.00 0.08 0.00 60 1011.2
20260506060114 8 94 0.0 4.8 0.00 0.08 0.00 60 1011.2
20260506050613 9 94 0.0 4.8 0.00 0.08 0.00 60 1011.1
20260506050113 9 94 1.6 3.2 0.00 0.08 0.00 61 1010.8
20260506045113 10 94 1.6 6.4 0.00 0.08 0.08 60 1010.6
20260506044613 10 94 0.0 6.4 0.00 0.08 0.08 60 1010.5
20260506043613 10 94 0.0 8.0 0.00 0.08 0.08 60 1010.5
20260506043113 10 94 1.6 8.0 0.00 0.08 0.08 62 1010.6
20260506042613 10 94 0.0 4.8 0.00 0.08 0.08 64 1010.6
20260506042113 9 94 0.0 4.8 0.00 0.08 0.08 64 1010.5
20260506041613 9 94 0.0 1.6 0.00 0.08 0.08 67 1010.4
20260506041113 9 94 0.0 1.6 0.00 0.08 0.08 67 1010.4
20260506040612 9 94 0.0 1.6 0.00 0.08 0.08 67 1010.4
20260506040112 10 94 0.0 0.0 0.00 0.08 0.08 67 1010.6
20260506034612 10 94 1.6 3.2 0.00 0.08 0.08 66 1010.6
20260506034112 10 94 0.0 3.2 0.00 0.08 0.08 67 1010.5
20260506033612 10 94 0.0 3.2 0.00 0.08 0.08 67 1010.5
20260506033112 10 94 1.6 3.2 0.00 0.08 0.08 67 1010.5
20260506032612 10 94 1.6 1.6 0.00 0.08 0.08 67 1010.4
20260506032112 10 94 1.6 6.4 0.00 0.08 0.08 66 1010.4
20260506031612 10 94 0.0 6.4 0.00 0.08 0.08 66 1010.4
20260506030612 10 94 0.0 1.6 0.00 0.08 0.08 68 1010.4
20260506030112 10 94 0.0 1.6 0.00 0.08 0.08 67 1010.3
20260506025612 9 94 0.0 1.6 0.00 0.08 0.08 67 1010.0
20260506025111 10 94 0.0 1.6 0.00 0.08 0.08 67 1010.1
20260506024612 9 94 0.0 1.6 0.00 0.08 0.08 67 1009.9
20260506024111 9 94 0.0 1.6 0.00 0.08 0.08 67 1009.8
20260506023611 9 94 0.0 1.6 0.00 0.08 0.08 67 1009.6
20260506023112 9 94 0.0 1.6 0.00 0.08 0.08 66 1009.5
20260506022612 10 94 0.0 1.6 0.00 0.08 0.08 66 1009.5
20260506022111 10 94 0.0 1.6 0.00 0.08 0.08 66 1009.4
20260506021111 10 94 0.0 1.6 0.00 0.08 0.08 65 1009.2
20260506020611 10 94 0.0 1.6 0.00 0.08 0.08 64 1009.2
20260506020111 10 94 0.0 1.6 0.00 0.08 0.08 64 1009.2
20260506015611 10 94 0.0 1.6 0.00 0.08 0.08 64 1009.0